Notices

What's New in latest Release from April 7th, 2021:

- Updated Glossary, including Speed of Maximum Gust, and Total Hourly Precipitation

- Updated national and regional climate services offices contacts and prices information

- Addition of station inventory lists for 1981-2010, 1971-2000, and 1961-1990 Normals.

If you haven't already, please take our survey and provide feedback about our website: https://eccc.sondage-survey.ca/f/LanguageSelection.aspx?s=442ca660-fcf1-47c0-95a9-59707d6fd709

Hourly Data Report for March 18, 2017

MIRAMICHI RCS
NEW BRUNSWICK

47°00'34.000" N
65°27'54.000" W
33.00 m
8100989
71744
ACQ

Download Data

Hourly Data (March 2017)
Hourly Data Report for March 18, 2017
TIME
LST
Temp Definition
°C
Dew Point Definition
°C
Rel Hum Definition
%
Precip. Amount Definition
mm

Wind Dir Definition
10's deg

Wind Spd Definition
km/h
Visibility Definition
km
Stn Press Definition
kPa
Hmdx Definition


Wind Chill Definition


Weather Definition


00:00 -4.4 -7.5 79 0.0 32 7   101.69   -8 LegendNANA
01:00 -4.6 -7.7 79 0.0 33 6   101.74   -7 LegendNANA
02:00 -4.4 -9.0 70 0.0 32 7   101.77   -8 LegendNANA
03:00 -5.4 -9.8 71 0.0 32 6   101.79   -8 LegendNANA
04:00 -7.1 -10.8 75 0.0 30 5   101.85   -10 LegendNANA
05:00 -8.8 -11.7 79 0.0 26 7   101.90   -13 LegendNANA
06:00 -9.6 -11.9 83 0.0 24 4   101.95   -12 LegendNANA
07:00 -9.6 -12.0 83 0.0 26 7   102.01   -14 LegendNANA
08:00 -8.5 -12.2 75 0.0 24 7   102.07   -12 LegendNANA
09:00 -5.7 -10.8 67 0.0 23 9   102.13   -10 LegendNANA
10:00 -0.5 -9.4 51 0.0 28 3   102.17   -1 LegendNANA
11:00 0.8 -9.4 47 0.0 16 3   102.15     LegendNANA
12:00 2.0 -10.6 39 0.0 35 6   102.16     LegendNANA
13:00 2.0 -8.2 47 0.0 14 8   102.16     LegendNANA
14:00 2.9 -10.5 37 0.0 7 10   102.14     LegendNANA
15:00 4.2 -11.7 30 0.0 12 2   102.15     LegendNANA
16:00 4.2 -11.7 30 0.0 12 5   102.15     LegendNANA
17:00 3.7 -9.9 36 0.0 6 7   102.18     LegendNANA
18:00 0.3 -7.1 58 0.0 10 13   102.24     LegendNANA
19:00 -2.1 -8.3 63 0.0 10 14   102.31   -7 LegendNANA
20:00 -3.9 -9.9 63 0.0 11 6   102.36   -7 LegendNANA
21:00 -4.0 -9.4 66 0.0   0   102.40     LegendNANA
22:00 -6.0 -9.8 75 0.0 26 4   102.46   -8 LegendNANA
23:00 -7.3 -10.4 79 0.0 26 1   102.48   -8 LegendNANA

Notes on Data Quality.

Legend

  • E = Estimated
  • M = Missing
  • NA = Not Available*
  • [empty] = Indicates an unobserved value
Date modified: